CAPE
0 0 0 0 0 0 0 0 0 0 0 0 0 0 0 83 139 121 109 133 241 315 247 65 0 0 0 0 0 0 0 0 0 0 0 0 0 0 0 0 0 0 0 0
0 0 0 0 0 0 0 0 0 0 0 0 0 0 0 44 116 128 113 190 260 237 294 146 0 0 0 0 0 0 0 0 0 0 0 0 0 0 0 0 0 0 0 0
2 0 0 0 0 0 0 0 0 0 0 0 0 0 0 0 0 28 69 54 141 217 216 117 6 0 0 0 0 0 0 0 0 0 0 0 0 0 0 0 0 0 0 0
0 0 2 5 0 0 0 0 0 0 6 23 0 0 0 0 0 0 92 72 56 11 35 28 0 0 0 0 0 0 0 0 0 0 0 0 0 0 0 0 0 0 0 0
1 0 6 0 0 0 0 0 0 0 0 2 0 0 0 0 0 0 0 0 0 2 27 46 0 0 0 0 0 0 0 0 0 0 0 0 0 0 0 0 0 0 0 0
0 0 0 0 0 0 0 0 0 0 0 9 0 0 0 0 0 0 0 0 0 0 7 1 0 0 0 0 0 0 0 0 0 0 0 0 0 0 0 0 0 0 0 0
0 0 0 0 0 0 0 0 0 0 0 0 0 0 0 0 0 0 0 0 0 0 1 0 0 0 0 0 0 0 0 0 0 0 0 0 0 0 0 0 0 0 0 0
0 0 0 0 0 0 0 0 0 0 0 0 0 0 0 0 0 0 0 0 0 0 0 0 0 0 0 0 0 0 0 0 0 0 0 0 0 0 0 0 0 0 0 0
0 0 0 0 0 0 0 0 0 0 0 0 0 0 0 0 0 0 0 0 0 0 0 0 0 0 0 0 0 0 0 0 0 0 0 0 0 0 0 0 0 0 0 0
0 0 0 0 0 0 0 0 0 0 0 0 0 0 0 0 0 0 0 0 0 0 0 0 0 0 0 0 0 0 0 0 0 0 0 0 0 0 0 0 0 0 0 0
0 0 0 0 0 0 0 0 0 0 0 0 0 0 0 0 0 0 0 0 0 0 0 0 0 0 0 0 0 0 0 0 0 0 0 0 0 0 0 0 0 0 0 0
0 0 0 0 0 0 0 0 0 0 0 0 0 0 0 0 0 0 0 0 0 0 0 0 0 0 0 0 0 0 0 0 0 0 0 0 0 0 0 0 0 0 0 0
0 0 0 0 0 0 0 0 0 0 0 0 0 0 0 0 0 0 0 0 0 0 0 0 0 0 0 0 0 0 0 0 0 0 0 0 0 0 0 0 0 0 0 0
0 0 0 0 0 0 0 0 0 0 0 0 0 0 0 0 0 0 0 0 0 0 0 0 0 0 0 0 0 0 0 0 0 0 0 0 0 0 0 0 0 0 0 0
0 0 0 0 0 0 0 0 0 0 0 0 0 0 0 0 0 0 0 0 0 0 0 0 0 0 0 0 0 0 0 0 0 0 0 0 0 0 0 0 0 0 0 0
0 0 0 0 0 0 0 0 0 0 0 0 0 0 0 0 0 0 0 0 0 0 0 0 0 0 0 0 0 0 0 0 0 0 0 0 0 0 0 0 0 0 0 0
0 0 0 0 0 0 0 0 0 0 0 0 0 0 0 0 0 0 0 0 0 0 0 0 0 0 0 0 0 0 0 0 0 0 0 0 0 0 0 0 0 0 0 0
0 0 0 0 0 0 0 0 0 0 0 0 0 0 0 0 0 0 0 0 0 0 0 0 0 0 0 0 0 0 0 0 0 0 0 0 0 0 0 0 0 0 0 0
0 0 0 0 0 0 0 0 0 0 0 0 0 0 0 0 0 0 0 0 0 0 0 0 0 0 0 0 0 0 0 0 0 0 0 0 0 0 0 0 0 0 0 0
0 0 0 0 0 0 0 0 0 0 0 0 0 0 0 0 0 0 0 0 0 0 0 0 0 0 0 0 0 0 0 0 0 0 0 0 0 0 0 0 0 0 0 0
0 0 0 0 0 0 0 0 0 0 0 0 0 0 0 0 0 0 0 0 0 0 0 0 0 0 0 0 0 0 0 0 0 0 0 0 0 0 0 0 0 0 0 0
0 0 0 0 0 0 0 0 0 0 0 0 0 0 0 0 0 0 0 0 0 0 0 0 0 0 0 0 0 0 0 0 0 0 0 0 0 0 0 0 0 0 0 0
0 0 0 0 0 0 0 0 0 0 0 0 0 0 0 0 0 0 0 0 0 0 0 0 0 0 0 0 0 0 0 0 0 0 0 0 0 0 0 0 0 0 0 0
0 0 0 0 0 0 0 0 0 0 0 0 0 0 0 0 0 0 0 0 0 0 0 0 0 0 0 0 0 0 0 0 0 0 0 0 0 0 0 0 0 0 0 0
0 0 0 0 0 0 0 0 0 0 0 0 0 0 0 0 0 0 0 0 0 0 0 0 0 0 0 0 0 0 0 0 0 0 0 0 0 0 0 0 0 0 0 0
0 0 0 0 0 0 0 0 0 0 0 0 0 0 0 0 0 0 0 0 0 0 0 0 0 0 0 0 0 0 0 0 0 0 0 0 0 0 0 0 0 0 0 0
CIN
0 0 0 0 0 0 0 0 0 0 0 0 0 0 0 -158 -148 -186 -196 -172 -180 -159 -141 -264 0 0 0 0 0 0 0 0 0 0 0 0 0 0 0 0 0 0 0 0
0 0 0 0 0 0 0 0 0 0 0 0 0 0 0 -164 -141 -168 -206 -180 -185 -177 -126 -176 0 0 0 0 0 0 0 0 0 0 0 0 0 0 0 0 0 0 0 0
-2 0 0 0 0 0 0 0 0 0 0 0 0 0 0 0 0 -146 -175 -204 -201 -176 -141 -190 -216 0 0 0 0 0 0 0 0 0 0 0 0 0 0 0 0 0 0 0
0 -2 -8 -8 0 0 0 0 0 0 -17 -3 0 0 0 0 0 0 -120 -182 -216 -323 -323 -274 -22 0 0 0 0 0 0 0 0 0 0 0 0 0 0 0 0 0 0 0
0 0 -1 0 0 0 0 0 0 0 0 -6 -2 0 0 0 0 0 0 0 0 -292 -317 -268 0 0 0 0 0 0 0 0 0 0 0 0 0 0 0 0 0 0 0 0
0 0 0 0 0 0 0 0 0 0 0 -9 0 0 0 0 0 0 0 0 0 0 -275 -198 0 0 0 0 0 0 0 0 0 0 0 0 0 0 0 0 0 0 0 0
0 0 0 0 0 0 0 0 0 0 0 0 0 0 0 0 0 0 0 0 0 0 -122 0 0 0 0 0 0 0 0 0 0 0 0 0 0 0 0 0 0 0 0 0
0 0 0 0 0 0 0 0 0 0 0 0 0 0 0 0 0 0 0 0 0 0 0 0 0 0 0 0 0 0 0 0 0 0 0 0 0 0 0 0 0 0 0 0
0 0 0 0 0 0 0 0 0 0 0 0 0 0 0 0 0 0 0 0 0 0 0 0 0 0 0 0 0 0 0 0 0 0 0 0 0 0 0 0 0 0 0 0
0 0 0 0 0 0 0 0 0 0 0 0 0 0 0 0 0 0 0 0 0 0 0 0 0 0 0 0 0 0 0 0 0 0 0 0 0 0 0 0 0 0 0 0
0 0 0 0 0 0 0 0 0 0 0 0 0 0 0 0 0 0 0 0 0 0 0 0 0 0 0 0 0 0 0 0 0 0 0 0 0 0 0 0 0 0 0 0
0 0 0 0 0 0 0 0 0 0 0 0 0 0 0 0 0 0 0 0 0 0 0 0 0 0 0 0 0 0 0 0 0 0 0 0 0 0 0 0 0 0 0 0
0 0 0 0 0 0 0 0 0 0 0 0 0 0 0 0 0 0 0 0 0 0 0 0 0 0 0 0 0 0 0 0 0 0 0 0 0 0 0 0 0 0 0 0
0 0 0 0 0 0 0 0 0 0 0 0 0 0 0 0 0 0 0 0 0 0 0 0 0 0 0 0 0 0 0 0 0 0 0 0 0 0 0 0 0 0 0 0
0 0 0 0 0 0 0 0 0 0 0 0 0 0 0 0 0 0 0 0 0 0 0 0 0 0 0 0 0 0 0 0 0 0 0 0 0 0 0 0 0 0 0 0
0 0 0 0 0 0 0 0 0 0 0 0 0 0 0 0 0 0 0 0 0 0 0 0 0 0 0 0 0 0 0 0 0 0 0 0 0 0 0 0 0 0 0 0
0 0 0 0 0 0 0 0 0 0 0 0 0 0 0 0 0 0 0 0 0 0 0 0 0 0 0 0 0 0 0 0 0 0 0 0 0 0 0 0 0 0 0 0
0 0 0 0 0 0 0 0 0 0 0 0 0 0 0 0 0 0 0 0 0 0 0 0 0 0 0 0 0 0 0 0 0 0 0 0 0 0 0 0 0 0 0 0
0 0 0 0 0 0 0 0 0 0 0 0 0 0 0 0 0 0 0 0 0 0 0 0 0 0 0 0 0 0 0 0 0 0 0 0 0 0 0 0 0 0 0 0
0 0 0 0 0 0 0 0 0 0 0 0 0 0 0 0 0 0 0 0 0 0 0 0 0 0 0 0 0 0 0 0 0 0 0 0 0 0 0 0 0 0 0 0
0 0 0 0 0 0 0 0 0 0 0 0 0 0 0 0 0 0 0 0 0 0 0 0 0 0 0 0 0 0 0 0 0 0 0 0 0 0 0 0 0 0 0 0
0 0 0 0 0 0 0 0 0 0 0 0 0 0 0 0 0 0 0 0 0 0 0 0 0 0 0 0 0 0 0 0 0 0 0 0 0 0 0 0 0 0 0 0
0 0 0 0 0 0 0 0 0 0 0 0 0 0 0 0 0 0 0 0 0 0 0 0 0 0 0 0 0 0 0 0 0 0 0 0 0 0 0 0 0 0 0 0
0 0 0 0 0 0 0 0 0 0 0 0 0 0 0 0 0 0 0 0 0 0 0 0 0 0 0 0 0 0 0 0 0 0 0 0 0 0 0 0 0 0 0 0
0 0 0 0 0 0 0 0 0 0 0 0 0 0 0 0 0 0 0 0 0 0 0 0 0 0 0 0 0 0 0 0 0 0 0 0 0 0 0 0 0 0 0 0
0 0 0 0 0 0 0 0 0 0 0 0 0 0 0 0 0 0 0 0 0 0 0 0 0 0 0 0 0 0 0 0 0 0 0 0 0 0 0 0 0 0 0 0
Wind_Speed
13 15 22 23 21 19 22 23 26 27 26 32 38 38 33 32 34 36 33 30 26 23 21 17 14 13 9 7 5 4 4 5 6 10 13 15 16 16 18 20 21 21 22 24
8 6 21 22 22 25 24 23 25 25 24 29 35 38 34 34 36 35 34 30 26 24 22 20 18 15 12 10 7 6 5 4 5 9 13 14 14 16 18 20 20 21 24 24
11 7 20 18 23 24 25 26 25 25 22 23 28 38 38 34 35 34 32 30 26 23 21 22 19 16 14 13 9 7 5 5 6 8 11 14 15 17 18 19 20 22 24 25
13 14 7 19 25 22 26 25 26 26 25 31 26 45 42 38 39 38 35 34 33 27 22 21 19 18 16 14 9 8 7 6 7 7 10 14 15 17 17 18 21 23 24 24
15 15 17 14 19 18 23 20 21 23 24 25 29 36 39 37 45 44 39 40 35 32 25 23 22 19 17 14 11 9 8 7 7 7 9 11 14 16 17 19 21 23 24 24
16 16 17 17 18 16 13 13 15 19 23 32 31 34 41 42 47 43 40 40 37 35 29 29 24 20 17 15 13 10 8 8 8 9 10 11 13 14 17 19 22 23 23 23
14 14 12 17 17 15 15 12 19 23 27 33 26 34 40 35 36 39 40 38 32 30 34 26 21 19 16 14 12 11 10 11 10 11 12 12 13 14 17 19 20 22 23 23
15 14 13 9 11 12 11 13 15 23 29 28 23 37 38 37 35 35 37 36 34 32 27 21 19 18 15 14 13 13 12 12 12 12 12 12 13 15 16 18 20 22 23 24
18 15 13 10 6 12 12 11 15 19 21 28 30 33 33 34 37 36 36 33 36 33 25 22 22 20 17 15 14 13 12 13 13 12 12 13 14 15 17 18 20 21 22 23
16 18 14 13 9 8 7 8 14 18 24 29 30 38 41 36 40 38 39 41 36 32 29 26 23 20 17 16 14 13 13 12 11 11 12 13 14 15 17 18 20 21 21 21
15 15 15 14 14 16 13 12 14 17 21 24 26 29 31 41 39 37 35 40 37 34 28 24 21 18 16 14 13 12 12 11 12 12 12 13 14 16 17 18 19 20 20 21
13 14 14 13 13 13 15 18 18 22 25 22 22 28 23 26 26 28 33 33 34 32 24 20 18 16 14 14 14 13 13 12 12 12 13 14 14 15 16 17 18 19 20 20
13 13 15 15 12 12 15 17 18 21 26 32 30 29 20 21 21 22 24 27 28 25 20 18 17 17 16 16 14 13 13 13 13 12 12 13 13 14 15 16 17 18 19 20
11 10 9 11 13 14 13 17 21 21 24 30 36 37 38 36 33 30 31 28 24 20 17 17 18 18 17 16 16 15 14 13 12 12 12 12 13 13 14 15 16 17 18 18
8 8 7 5 7 7 10 14 18 22 26 29 32 36 38 36 36 34 29 27 24 21 19 18 18 19 19 18 16 15 14 13 12 11 12 12 12 13 13 14 15 16 17 18
8 9 10 4 6 7 10 16 19 23 26 31 34 38 37 39 39 41 39 32 29 24 22 22 21 20 19 17 16 15 14 12 11 12 12 12 12 13 14 15 15 16 17 17
10 10 12 11 11 8 7 13 18 19 27 27 29 34 34 35 34 36 37 35 33 29 25 22 21 20 18 17 15 14 13 11 12 12 12 12 12 13 14 14 14 15 16 17
12 12 14 15 16 11 5 19 19 13 25 31 35 37 35 33 34 35 34 34 35 32 29 26 22 20 18 17 15 14 13 13 13 13 13 13 13 13 13 13 14 15 16 17
15 14 19 20 16 24 27 19 17 16 28 26 35 36 34 33 33 37 33 31 31 30 27 23 20 20 18 17 15 14 14 14 14 14 14 13 12 13 13 14 15 15 16 18
16 17 17 20 24 22 19 21 18 22 35 25 22 24 25 22 28 28 26 25 25 24 23 19 17 16 16 16 14 14 15 15 15 15 14 13 13 13 13 13 14 16 17 18
17 20 20 22 26 28 24 22 20 26 25 22 23 24 23 25 24 25 28 27 25 25 23 19 15 16 16 15 14 16 15 16 15 13 13 13 13 13 13 14 15 16 18 19
22 21 23 23 27 36 16 15 20 23 25 26 26 26 26 28 30 31 30 29 27 26 22 18 15 14 13 13 14 15 16 15 13 13 13 13 13 14 14 14 16 17 18 21
29 25 27 22 24 21 16 24 24 27 31 29 29 29 30 32 32 32 32 31 29 27 24 19 16 14 13 13 14 15 15 13 13 13 13 13 13 13 14 15 17 20 22 23
27 25 30 31 31 33 34 33 34 33 35 34 34 35 33 36 35 35 34 33 31 28 25 20 17 17 15 13 14 15 14 13 13 13 14 14 14 15 16 18 20 21 22 23
33 28 35 40 40 44 43 38 39 36 34 34 36 37 37 36 38 37 36 33 31 28 24 20 18 17 16 14 14 14 13 12 13 14 14 15 15 17 20 20 20 21 21 21
33 38 40 47 43 40 42 38 34 36 38 37 38 38 35 33 37 36 35 33 30 28 24 21 20 19 18 15 15 13 12 11 12 14 15 16 18 20 20 21 22 21 21 22
Wind_Direction
350 307 266 261 264 268 261 255 249 243 243 237 236 237 238 236 235 234 235 234 240 244 250 257 265 269 270 274 276 281 299 323 329 327 324 324 324 328 323 320 324 330 336 340
21 14 274 271 264 258 260 259 251 248 247 241 239 238 239 237 236 235 234 235 235 243 249 256 263 268 269 270 274 280 293 307 320 324 322 326 328 326 322 319 324 332 334 339
126 309 277 278 258 255 255 253 249 246 248 250 242 239 237 239 240 237 236 238 241 242 249 253 260 266 271 272 274 281 289 300 316 324 324 325 325 323 320 320 324 329 333 338
114 178 14 276 251 257 252 252 249 248 244 241 247 235 236 236 235 237 238 240 244 248 254 257 260 264 267 272 282 288 294 303 314 323 321 317 318 318 322 322 325 328 335 339
92 125 123 268 255 260 253 259 253 251 248 251 248 241 237 236 234 235 239 240 245 250 252 256 259 262 266 272 277 285 295 305 314 318 321 321 319 321 324 324 324 329 334 338
86 111 164 177 256 265 274 267 262 259 255 248 250 243 239 233 233 237 241 243 246 248 253 254 260 264 264 270 275 280 290 302 311 315 318 319 319 321 321 322 324 329 333 338
107 99 79 262 242 276 276 263 258 253 251 250 259 245 239 241 241 240 242 246 251 253 248 254 256 258 259 261 267 276 285 295 305 310 313 315 318 320 321 324 327 329 332 335
86 96 108 12 321 314 308 266 275 262 256 258 266 246 240 244 245 246 248 251 253 253 253 251 250 253 252 256 264 274 281 291 299 305 309 315 318 321 324 327 329 329 330 333
78 88 109 53 14 322 292 291 292 286 279 262 257 254 250 245 243 246 248 252 253 253 250 248 254 254 253 256 261 268 278 289 297 302 307 312 317 321 323 326 328 330 333 336
82 76 103 116 45 316 323 312 297 285 266 259 262 249 240 243 241 245 247 248 254 258 254 252 251 251 253 256 263 271 278 285 294 300 306 311 316 321 324 327 328 331 337 342
83 83 87 111 143 151 137 152 302 279 277 267 261 248 243 237 243 245 250 249 254 257 256 253 252 250 250 256 261 269 275 282 290 298 305 310 315 319 325 328 332 335 343 345
92 80 82 99 122 141 159 170 166 247 258 272 261 241 247 245 245 249 252 255 257 259 258 251 248 244 247 253 264 269 275 281 288 295 302 308 315 321 326 330 335 340 342 346
96 86 73 79 105 140 165 173 173 216 257 235 243 235 244 247 246 250 259 267 263 264 258 250 248 248 252 258 264 268 274 279 286 293 300 308 315 321 327 332 337 340 343 345
78 78 92 82 85 105 140 169 179 185 203 223 225 233 238 244 246 258 269 275 276 273 263 256 254 254 257 260 263 268 274 279 285 292 299 306 314 321 326 332 336 340 343 344
65 52 78 156 170 143 160 170 175 188 201 207 226 228 236 245 255 267 274 277 275 275 269 260 255 255 257 260 264 269 273 277 283 290 297 304 312 319 325 330 334 337 339 342
18 18 36 73 98 166 200 203 201 203 209 220 233 237 250 250 257 260 268 273 275 275 270 265 261 260 258 259 262 266 270 274 280 286 293 300 307 314 319 325 329 333 336 339
348 354 4 8 30 39 199 207 198 197 213 212 213 233 267 267 269 269 270 274 274 276 273 267 261 257 256 254 254 256 260 267 273 280 287 294 301 307 313 320 325 329 331 334
323 328 336 338 348 349 18 323 306 175 229 223 243 252 272 276 277 279 281 280 280 280 279 274 268 263 258 257 257 261 263 268 275 281 286 292 297 303 310 316 320 324 327 329
303 308 315 318 319 312 300 325 328 325 287 281 258 268 280 287 288 286 287 287 286 288 286 279 270 264 259 253 255 258 263 268 274 277 282 287 292 298 304 308 313 318 322 325
293 299 298 306 305 310 320 314 322 318 293 305 304 299 301 306 295 299 309 308 301 299 297 289 276 265 253 249 248 254 261 267 271 274 279 284 290 294 299 305 311 316 320 322
293 293 281 290 297 302 305 307 311 309 312 313 311 308 306 303 305 309 309 309 311 307 304 300 285 268 253 247 248 256 262 266 271 275 279 283 288 292 298 304 310 314 317 320
285 286 290 291 293 298 305 313 306 310 309 309 308 305 303 303 303 304 308 309 309 308 310 305 293 279 263 247 249 259 263 270 271 273 275 279 284 291 297 302 308 312 316 317
283 284 289 283 294 304 302 306 304 307 304 303 301 302 302 302 303 304 306 307 307 307 306 304 294 281 267 253 253 259 266 268 270 271 273 278 285 291 298 301 304 308 310 312
286 288 287 290 292 290 293 295 295 298 298 298 299 298 298 298 300 302 303 303 303 304 302 302 295 283 272 263 265 272 272 270 267 270 275 282 286 291 296 301 305 306 308 310
283 285 287 287 289 291 290 293 294 295 297 298 299 298 297 296 297 299 299 301 302 301 300 296 291 285 280 276 276 280 276 269 270 275 280 285 289 293 298 301 303 304 307 309
282 282 282 284 289 290 290 294 298 297 296 297 298 299 298 297 297 300 299 301 301 298 297 293 290 286 282 278 279 281 277 272 273 279 283 287 292 295 298 300 302 304 306 309